GW1515 Weather Reports


time (UTC)temp
C
wind
direction
speed
KPH
gust
KPH
rain 1hr
cm
rain 24hr
cm
rain mn
cm
humidity
%
barometer
mb
20260507205209 15 245 6.4 30.6 0.00 0.00 0.00 55 1010.6
20260507204705 15 235 17.7 33.8 0.00 0.00 0.00 56 1010.8
20260507204203 14 220 12.9 30.6 0.00 0.00 0.00 56 1010.6
20260507203701 14 227 8.0 32.2 0.00 0.00 0.00 58 1010.9
20260507203158 14 247 8.0 38.6 0.00 0.00 0.00 57 1010.9
20260507202654 13 238 17.7 38.6 0.00 0.00 0.00 57 1011.0
20260507202150 14 248 16.1 37.0 0.00 0.00 0.00 58 1011.3
20260507201645 13 239 11.3 38.6 0.00 0.00 0.00 58 1011.4
20260507201142 14 221 14.5 27.4 0.00 0.00 0.00 56 1011.5
20260507200638 13 250 17.7 35.4 0.00 0.00 0.00 57 1011.6
20260507200135 14 240 8.0 27.4 0.00 0.00 0.00 57 1011.5
20260507195632 13 226 14.5 40.2 0.00 0.00 0.00 58 1011.8
20260507195129 13 235 24.1 35.4 0.00 0.00 0.00 58 1012.0
20260507194626 13 233 14.5 45.1 0.00 0.00 0.00 59 1012.3
20260507194121 13 267 9.7 48.3 0.00 0.00 0.00 60 1012.2
20260507193618 13 250 20.9 25.7 0.00 0.00 0.00 58 1012.3
20260507193115 13 226 8.0 19.3 0.00 0.00 0.00 60 1012.3
20260507192611 12 229 14.5 35.4 0.00 0.00 0.00 59 1012.5
20260507192108 12 251 14.5 56.3 0.00 0.00 0.00 58 1012.4
20260507191604 13 253 11.3 40.2 0.00 0.00 0.00 58 1012.5
20260507191101 13 226 9.7 30.6 0.00 0.00 0.00 58 1012.5
20260507190558 13 236 32.2 45.1 0.00 0.00 0.00 57 1012.7
20260507190057 13 233 8.0 27.4 0.00 0.00 0.00 58 1012.9
20260507185555 13 244 19.3 38.6 0.00 0.00 0.00 57 1012.7
20260507185051 12 236 11.3 35.4 0.00 0.00 0.00 57 1012.6
20260507184550 13 211 14.5 38.6 0.00 0.00 0.00 52 1012.5
20260507184047 13 245 8.0 48.3 0.00 0.00 0.00 50 1012.5
20260507183543 13 213 24.1 49.9 0.00 0.00 0.00 47 1012.4
20260507183040 14 266 17.7 29.0 0.00 0.00 0.00 46 1012.4
20260507182536 13 234 8.0 29.0 0.00 0.00 0.00 47 1012.4
20260507182032 13 249 14.5 25.7 0.00 0.00 0.00 46 1012.5
20260507181530 14 237 11.3 30.6 0.00 0.00 0.00 44 1012.4
20260507181026 14 241 17.7 20.9 0.00 0.00 0.00 45 1012.5
20260507180522 13 253 12.9 35.4 0.00 0.00 0.00 46 1012.6
20260507180019 13 243 12.9 43.5 0.00 0.00 0.00 44 1012.7
20260507175515 13 244 6.4 22.5 0.00 0.00 0.00 42 1013.0
20260507175013 13 221 9.7 38.6 0.00 0.00 0.00 43 1012.9
20260507174510 12 202 3.2 25.7 0.00 0.00 0.00 47 1013.0
20260507174008 12 287 11.3 20.9 0.00 0.00 0.00 46 1013.4
20260507173504 13 247 12.9 30.6 0.00 0.00 0.00 44 1013.4
20260507173002 13 256 14.5 22.5 0.00 0.00 0.00 41 1013.3
20260507172457 13 207 22.5 38.6 0.00 0.00 0.00 40 1013.2
20260507171954 13 229 6.4 27.4 0.00 0.00 0.00 41 1013.5
20260507171450 14 233 8.0 12.9 0.00 0.00 0.00 43 1013.6
20260507170947 13 220 16.1 24.1 0.00 0.00 0.00 42 1013.5
20260507170444 13 160 6.4 20.9 0.00 0.00 0.00 43 1013.7
20260507165940 14 201 19.3 19.3 0.00 0.00 0.00 42 1013.8
20260507165436 14 205 4.8 17.7 0.00 0.00 0.00 42 1013.7
20260507164932 13 252 4.8 27.4 0.00 0.00 0.00 42 1014.1
20260507164429 15 220 9.7 14.5 0.00 0.00 0.00 41 1014.0
20260507163926 13 250 11.3 12.9 0.00 0.00 0.00 40 1013.9
20260507163424 13 227 11.3 17.7 0.00 0.00 0.00 44 1014.1
20260507162920 13 209 3.2 22.5 0.00 0.00 0.00 42 1014.3
20260507162415 13 308 6.4 20.9 0.00 0.00 0.00 43 1014.2
20260507161914 13 295 4.8 20.9 0.00 0.00 0.00 41 1014.5
20260507161409 13 230 6.4 12.9 0.00 0.00 0.00 42 1014.4
20260507160906 13 252 8.0 20.9 0.00 0.00 0.00 41 1014.6
20260507160402 13 202 12.9 20.9 0.00 0.00 0.00 43 1014.5
20260507155858 13 221 22.5 22.5 0.00 0.00 0.00 42 1014.9
20260507155354 13 252 4.8 20.9 0.00 0.00 0.00 40 1014.7
20260507154851 12 216 6.4 25.7 0.00 0.00 0.00 44 1014.6
20260507154348 13 242 8.0 22.5 0.00 0.00 0.00 40 1014.7
20260507153846 12 196 12.9 27.4 0.00 0.00 0.00 43 1014.7
20260507153342 13 206 8.0 14.5 0.00 0.00 0.00 45 1014.9
20260507152838 12 243 8.0 16.1 0.00 0.00 0.00 44 1014.8
20260507152334 12 277 3.2 8.0 0.00 0.00 0.00 45 1014.6
20260507151831 12 202 11.3 17.7 0.00 0.00 0.00 44 1014.8
20260507151327 12 244 9.7 11.3 0.00 0.00 0.00 44 1014.9
20260507150824 11 202 4.8 11.3 0.00 0.00 0.00 45 1014.9
20260507150321 11 207 17.7 17.7 0.00 0.00 0.00 43 1015.1
20260507145817 11 203 6.4 16.1 0.00 0.00 0.00 45 1015.4
20260507145313 11 195 14.5 20.9 0.00 0.00 0.00 44 1015.3
20260507144811 11 236 4.8 14.5 0.00 0.00 0.00 46 1015.4
20260507144308 11 205 12.9 16.1 0.00 0.00 0.00 47 1015.4
20260507143804 11 288 1.6 11.3 0.00 0.00 0.00 46 1015.2
20260507143302 11 241 9.7 14.5 0.00 0.00 0.00 47 1015.6
20260507142757 11 118 3.2 12.9 0.00 0.00 0.00 48 1015.6
20260507142254 10 238 8.0 14.5 0.00 0.00 0.00 47 1015.5
20260507141751 10 221 8.0 11.3 0.00 0.00 0.00 49 1015.5
20260507141248 10 207 6.4 19.3 0.00 0.00 0.00 48 1015.5
20260507140744 10 140 12.9 16.1 0.00 0.00 0.00 49 1015.4
20260507140241 10 203 4.8 14.5 0.00 0.00 0.00 50 1015.5
20260507135738 10 217 4.8 6.4 0.00 0.00 0.00 52 1015.6
20260507135236 10 198 4.8 14.5 0.00 0.00 0.00 50 1015.8
20260507134732 10 216 4.8 12.9 0.00 0.00 0.00 51 1015.8
20260507134228 9 221 8.0 12.9 0.00 0.00 0.00 54 1015.8
20260507133724 9 228 6.4 11.3 0.00 0.00 0.00 54 1015.7
20260507133221 9 177 4.8 6.4 0.00 0.00 0.00 54 1016.0
20260507132719 8 151 3.2 11.3 0.00 0.00 0.00 53 1016.1
20260507132215 8 241 4.8 11.3 0.00 0.00 0.00 54 1015.8
20260507131712 8 217 4.8 8.0 0.00 0.00 0.00 54 1015.7
20260507131209 8 207 4.8 9.7 0.00 0.00 0.00 54 1016.1
20260507130706 8 196 6.4 8.0 0.00 0.00 0.00 56 1015.9
20260507130204 8 269 3.2 8.0 0.00 0.00 0.00 55 1015.8
20260507125702 8 227 6.4 6.4 0.00 0.00 0.00 57 1015.7
20260507125159 7 203 1.6 4.8 0.00 0.00 0.00 59 1015.6
20260507124655 7 193 6.4 8.0 0.00 0.00 0.00 60 1015.8
20260507124153 7 180 6.4 8.0 0.00 0.00 0.00 59 1015.9
20260507123651 7 289 1.6 4.8 0.00 0.00 0.00 62 1015.6
20260507123148 7 181 1.6 4.8 0.00 0.00 0.00 64 1015.7
20260507122643 6 181 1.6 6.4 0.00 0.00 0.00 68 1015.6
20260507122139 6 181 3.2 6.4 0.00 0.00 0.00 68 1015.4
20260507121635 6 178 1.6 6.4 0.00 0.00 0.00 68 1015.4
20260507121131 6 136 3.2 4.8 0.00 0.00 0.00 68 1015.2
20260507120628 6 200 1.6 4.8 0.00 0.00 0.00 67 1015.5
20260507120125 6 117 0.0 3.2 0.00 0.00 0.00 68 1015.4
20260507115621 5 134 0.0 3.2 0.00 0.00 0.00 70 1015.5
20260507115117 5 89 0.0 3.2 0.00 0.00 0.00 73 1015.5
20260507114613 4 227 3.2 4.8 0.00 0.00 0.00 74 1015.6
20260507114110 4 125 3.2 3.2 0.00 0.00 0.00 78 1015.4
20260507113608 3 168 1.6 6.4 0.00 0.00 0.00 78 1015.3
20260507113104 2 157 1.6 4.8 0.00 0.00 0.00 81 1015.4
20260507112603 2 116 0.0 4.8 0.00 0.00 0.00 83 1015.3
20260507112059 2 153 3.2 4.8 0.00 0.00 0.00 85 1015.3
20260507111556 1 103 1.6 3.2 0.00 0.00 0.00 88 1015.2
20260507111052 1 120 3.2 4.8 0.00 0.00 0.00 89 1015.4
20260507110549 0 82 1.6 4.8 0.00 0.00 0.00 89 1015.3
20260507110045 0 135 0.0 3.2 0.00 0.00 0.00 89 1015.5
20260507105542 0 101 0.0 3.2 0.00 0.00 0.00 88 1015.4
20260507105038 0 79 1.6 3.2 0.00 0.00 0.00 88 1015.6
20260507104536 0 65 0.0 3.2 0.00 0.00 0.00 87 1015.4
20260507104032 0 89 0.0 1.6 0.00 0.00 0.00 87 1015.4
20260507103528 0 246 0.0 1.6 0.00 0.00 0.00 88 1015.5
20260507103025 0 60 0.0 1.6 0.00 0.00 0.00 88 1015.3
20260507102522 0 76 0.0 3.2 0.00 0.00 0.00 88 1015.4
20260507102018 0 102 0.0 3.2 0.00 0.00 0.00 87 1015.4
20260507101513 0 53 0.0 3.2 0.00 0.00 0.00 87 1015.2
20260507101010 1 130 0.0 3.2 0.00 0.00 0.00 86 1015.5
20260507100508 1 291 0.0 3.2 0.00 0.00 0.00 86 1015.5
20260507100006 1 174 0.0 3.2 0.00 0.00 0.00 86 1015.4
20260507095503 1 57 0.0 3.2 0.00 0.00 0.00 85 1015.5
20260507094959 1 287 0.0 3.2 0.00 0.00 0.00 85 1015.5
20260507094455 1 319 0.0 3.2 0.00 0.00 0.00 85 1015.4
20260507093953 1 126 0.0 3.2 0.00 0.00 0.00 84 1015.4
20260507093450 1 166 0.0 3.2 0.00 0.00 0.00 84 1015.4
20260507092948 1 131 0.0 3.2 0.00 0.00 0.00 83 1015.7
20260507092445 1 186 1.6 3.2 0.00 0.00 0.00 83 1015.5
20260507091941 1 76 0.0 3.2 0.00 0.00 0.00 83 1015.5
20260507091438 2 329 0.0 3.2 0.00 0.00 0.00 82 1015.8
20260507090934 2 212 0.0 3.2 0.00 0.00 0.00 82 1015.6
20260507090430 2 209 0.0 3.2 0.00 0.00 0.00 82 1015.5
20260507085927 2 278 0.0 3.2 0.00 0.00 0.00 82 1015.6
20260507085424 2 275 0.0 3.2 0.00 0.00 0.00 82 1015.4
20260507084921 2 200 0.0 3.2 0.00 0.00 0.00 82 1015.4
20260507084418 2 210 0.0 3.2 0.00 0.00 0.00 82 1015.5
20260507083915 2 278 0.0 3.2 0.00 0.00 0.00 82 1015.7
20260507083411 1 66 0.0 3.2 0.00 0.00 0.00 82 1015.7
20260507082908 1 73 1.6 3.2 0.00 0.00 0.00 81 1015.7
20260507082403 2 107 0.0 3.2 0.00 0.00 0.00 80 1015.9
20260507081901 2 117 1.6 3.2 0.00 0.00 0.00 80 1015.6
20260507081357 2 135 0.0 3.2 0.00 0.00 0.00 80 1015.7
20260507080853 2 224 0.0 3.2 0.00 0.00 0.00 80 1015.5
20260507080350 2 124 0.0 3.2 0.00 0.00 0.00 81 1015.5
20260507075845 2 101 1.6 3.2 0.00 0.00 0.00 81 1015.6
20260507075341 2 89 0.0 3.2 0.00 0.00 0.00 80 1015.4
20260507074838 2 185 0.0 3.2 0.00 0.00 0.00 79 1015.4
20260507074335 2 144 0.0 3.2 0.00 0.00 0.00 79 1015.4
20260507073832 2 198 0.0 3.2 0.00 0.00 0.00 79 1015.4
20260507073329 2 130 0.0 3.2 0.00 0.00 0.00 81 1015.5
20260507072826 2 146 0.0 1.6 0.00 0.00 0.00 81 1015.3
20260507072324 2 224 0.0 1.6 0.00 0.00 0.00 80 1015.5
20260507071821 2 66 0.0 3.2 0.00 0.00 0.00 81 1015.4
20260507071318 2 115 1.6 3.2 0.00 0.00 0.00 81 1015.5
20260507070814 1 89 0.0 3.2 0.00 0.00 0.00 81 1015.5
20260507070312 2 60 0.0 3.2 0.00 0.00 0.00 81 1015.7
20260507065808 2 72 0.0 3.2 0.00 0.00 0.00 80 1015.7
20260507065306 2 186 0.0 1.6 0.00 0.00 0.00 79 1015.6
20260507064802 2 48 0.0 3.2 0.00 0.00 0.00 78 1015.7
20260507064301 2 60 0.0 3.2 0.00 0.00 0.00 77 1015.8
20260507063758 2 208 0.0 3.2 0.00 0.00 0.00 76 1015.9
20260507063255 2 129 0.0 3.2 0.00 0.00 0.00 76 1015.7
20260507062752 2 155 1.6 3.2 0.00 0.00 0.00 74 1015.9
20260507062249 3 184 0.0 3.2 0.00 0.00 0.00 72 1015.8
20260507061747 3 149 0.0 4.8 0.00 0.00 0.00 74 1015.9
20260507061244 3 150 3.2 3.2 0.00 0.00 0.00 73 1015.9
20260507060743 3 142 3.2 3.2 0.00 0.00 0.00 73 1016.0
20260507060239 3 147 0.0 3.2 0.00 0.00 0.00 71 1015.9
20260507055735 3 143 3.2 4.8 0.00 0.00 0.00 71 1015.8
20260507055231 3 167 1.6 3.2 0.00 0.00 0.00 71 1015.9
20260507054727 3 194 0.0 4.8 0.00 0.00 0.00 71 1015.7
20260507054224 3 140 3.2 4.8 0.00 0.00 0.00 71 1016.0
20260507053721 3 144 4.8 4.8 0.00 0.00 0.00 71 1016.0
20260507053219 3 144 3.2 4.8 0.00 0.00 0.00 70 1015.8
20260507052718 3 118 1.6 4.8 0.00 0.00 0.00 69 1016.0
20260507052213 3 117 1.6 4.8 0.00 0.00 0.00 69 1015.7
20260507051712 3 143 1.6 3.2 0.00 0.00 0.00 70 1016.1
20260507051208 3 137 1.6 4.8 0.00 0.00 0.00 69 1015.9
20260507050705 3 143 3.2 4.8 0.00 0.00 0.00 68 1016.1
20260507050202 3 115 3.2 4.8 0.00 0.00 0.00 69 1016.0
20260507045659 4 127 3.2 4.8 0.00 0.00 0.00 68 1015.8
20260507045156 4 121 3.2 4.8 0.00 0.00 0.00 68 1016.2
20260507044652 3 113 0.0 3.2 0.00 0.00 0.00 66 1016.1
20260507044149 4 119 0.0 4.8 0.00 0.00 0.00 66 1016.0
20260507043645 4 141 1.6 3.2 0.00 0.00 0.00 66 1016.1
20260507043142 4 154 0.0 3.2 0.00 0.00 0.00 67 1015.9
20260507042638 4 103 0.0 3.2 0.00 0.00 0.00 65 1016.0
20260507042134 4 125 3.2 4.8 0.00 0.00 0.00 66 1015.9
20260507041631 4 80 0.0 3.2 0.00 0.00 0.00 66 1016.0
20260507041127 4 79 0.0 3.2 0.00 0.00 0.00 66 1015.8
20260507040624 4 158 3.2 3.2 0.00 0.00 0.00 65 1015.9
20260507040121 5 142 0.0 3.2 0.00 0.00 0.00 65 1015.9
20260507035616 5 113 0.0 4.8 0.00 0.00 0.00 66 1015.9
20260507035113 5 129 3.2 4.8 0.00 0.00 0.00 65 1016.1
20260507034610 5 113 1.6 3.2 0.00 0.00 0.00 65 1015.8
20260507034107 5 146 1.6 4.8 0.00 0.00 0.00 65 1015.9
20260507033606 5 60 0.0 3.2 0.00 0.00 0.00 64 1015.9
20260507033102 5 81 1.6 3.2 0.00 0.00 0.00 62 1015.9
20260507032600 5 81 0.0 3.2 0.00 0.00 0.00 61 1016.0
20260507032056 6 109 0.0 3.2 0.00 0.00 0.00 59 1016.1
20260507031552 6 235 0.0 3.2 0.00 0.00 0.00 58 1015.8
20260507031049 6 0 0.0 3.2 0.00 0.00 0.00 58 1015.9
20260507030546 6 2 0.0 3.2 0.00 0.00 0.00 58 1015.9
20260507030044 6 106 1.6 3.2 0.00 0.00 0.00 60 1016.0
20260507025540 5 198 3.2 3.2 0.00 0.00 0.00 60 1015.8
20260507025038 5 155 0.0 3.2 0.00 0.00 0.00 60 1015.8
20260507024536 6 135 0.0 3.2 0.00 0.00 0.00 58 1015.7
20260507024032 6 184 0.0 3.2 0.00 0.00 0.00 57 1015.7
20260507023528 6 223 0.0 4.8 0.00 0.00 0.00 55 1015.9
20260507023026 7 170 1.6 3.2 0.00 0.00 0.00 55 1015.7
20260507022522 7 140 1.6 3.2 0.00 0.00 0.00 54 1015.6
20260507022018 7 187 0.0 6.4 0.00 0.00 0.00 51 1015.7
20260507021514 7 114 1.6 4.8 0.00 0.00 0.00 51 1015.5
20260507021011 8 205 0.0 9.7 0.00 0.00 0.00 51 1015.6
20260507020508 8 301 3.2 9.7 0.00 0.00 0.00 49 1015.2
20260507020005 8 240 4.8 6.4 0.00 0.00 0.00 49 1015.3
20260507015503 8 129 3.2 9.7 0.00 0.00 0.00 49 1015.4
20260507015000 8 276 3.2 8.0 0.00 0.00 0.00 48 1015.4
20260507014456 8 323 3.2 8.0 0.00 0.00 0.00 49 1015.3
20260507013952 8 210 0.0 3.2 0.00 0.00 0.00 50 1015.2
20260507013449 8 252 1.6 9.7 0.00 0.00 0.00 48 1015.0
20260507012947 8 181 1.6 6.4 0.00 0.00 0.00 48 1014.9
20260507012443 9 262 4.8 11.3 0.00 0.00 0.00 47 1014.9
20260507011940 9 288 3.2 8.0 0.00 0.00 0.00 47 1015.0
20260507011437 9 216 0.0 16.1 0.00 0.00 0.00 46 1014.9
20260507010932 9 307 3.2 16.1 0.00 0.00 0.00 45 1015.2
20260507010427 10 203 1.6 8.0 0.00 0.00 0.00 46 1015.0
20260507005924 10 308 4.8 17.7 0.00 0.00 0.00 45 1014.9
20260507005421 10 237 4.8 16.1 0.00 0.00 0.00 44 1014.8
20260507004918 10 243 9.7 29.0 0.00 0.00 0.00 45 1014.6
20260507004414 10 261 6.4 12.9 0.00 0.00 0.00 45 1014.7
20260507003912 10 309 4.8 14.5 0.00 0.00 0.00 44 1014.8
20260507003407 10 323 3.2 11.3 0.00 0.00 0.00 44 1014.8
20260507002902 10 274 4.8 14.5 0.00 0.00 0.00 44 1014.8
20260507002359 10 320 3.2 12.9 0.00 0.00 0.00 45 1014.7
20260507001856 11 273 4.8 17.7 0.00 0.00 0.00 45 1014.4
20260507001353 11 186 1.6 16.1 0.00 0.00 0.00 44 1014.6
20260507000850 11 278 11.3 17.7 0.00 0.00 0.00 43 1014.3
20260507000345 11 271 8.0 17.7 0.00 0.00 0.00 42 1014.4
20260506235841 11 243 19.3 20.9 0.00 0.00 0.00 41 1014.3
20260506235338 12 239 11.3 16.1 0.00 0.00 0.00 42 1014.1
20260506234834 11 267 4.8 16.1 0.00 0.00 0.00 42 1014.1
20260506234332 11 266 12.9 16.1 0.00 0.00 0.00 42 1014.2
20260506233830 11 283 6.4 19.3 0.00 0.00 0.00 41 1014.0
20260506233325 11 276 11.3 17.7 0.00 0.00 0.00 42 1014.2
20260506232823 11 225 3.2 11.3 0.00 0.00 0.00 43 1014.1
20260506232318 11 260 17.7 33.8 0.00 0.00 0.00 41 1014.1
20260506231815 12 239 12.9 24.1 0.00 0.00 0.00 41 1014.3
20260506231313 12 267 8.0 19.3 0.00 0.00 0.00 41 1014.1
20260506230810 12 306 4.8 17.7 0.00 0.00 0.00 40 1014.0
20260506230307 12 271 9.7 30.6 0.00 0.00 0.00 40 1014.1
20260506225803 12 281 4.8 17.7 0.00 0.00 0.00 42 1014.1
20260506225300 12 255 3.2 9.7 0.00 0.00 0.00 42 1013.9
20260506224756 12 244 11.3 12.9 0.00 0.00 0.00 41 1013.9
20260506224254 12 279 11.3 29.0 0.00 0.00 0.00 40 1013.8
20260506223749 12 249 4.8 14.5 0.00 0.00 0.00 41 1013.6
20260506223240 13 241 17.7 24.1 0.00 0.00 0.00 38 1013.8
20260506222737 13 278 14.5 24.1 0.00 0.00 0.00 38 1013.7
20260506222232 13 243 12.9 24.1 0.00 0.00 0.00 38 1013.7
20260506221731 14 321 11.3 20.9 0.00 0.00 0.00 36 1013.9
20260506221229 13 287 12.9 27.4 0.00 0.00 0.00 37 1013.6
20260506220725 13 238 8.0 25.7 0.00 0.00 0.00 38 1013.6
20260506220220 13 271 8.0 32.2 0.00 0.00 0.00 38 1013.4
20260506215717 13 224 4.8 20.9 0.00 0.00 0.00 39 1013.6
20260506215213 13 250 20.9 27.4 0.00 0.00 0.00 38 1013.4
20260506214710 13 247 14.5 20.9 0.00 0.00 0.00 38 1013.5
20260506214207 14 339 4.8 19.3 0.00 0.00 0.00 36 1013.6
20260506213705 13 225 4.8 22.5 0.00 0.00 0.00 37 1013.5
20260506213202 13 290 9.7 27.4 0.00 0.00 0.00 37 1013.5
20260506212659 13 250 6.4 30.6 0.00 0.00 0.00 37 1013.7
20260506212155 13 240 12.9 29.0 0.00 0.00 0.00 38 1013.5
20260506211650 13 290 9.7 11.3 0.00 0.00 0.00 39 1013.5
20260506211147 12 264 8.0 24.1 0.00 0.00 0.00 38 1013.4
20260506210644 13 276 24.1 29.0 0.00 0.00 0.00 35 1013.6
20260506210140 14 267 6.4 17.7 0.00 0.00 0.00 36 1013.7
20260506205638 13 251 12.9 25.7 0.00 0.00 0.00 35 1013.5